Weather History for KPUW - September, 2013

Change the Weather History Date:

Monday, September 16, 2013

  Actual Average Record
Temperature  
Mean Temperature 61 °F 58 °F  
Max Temperature 72 °F 73 °F 95 °F (1998)
Min Temperature 49 °F 43 °F 28 °F (1971)
Degree Days  
Heating Degree Days 4 7  
Month to date heating degree days 16 90  
Since 1 July heating degree days 56 223  
Cooling Degree Days 0 1  
Month to date cooling degree days 69 20  
Year to date cooling degree days 331 210  
Growing Degree Days 14 (Base 50)    
Moisture  
Dew Point 50 °F    
Average Humidity 67    
Maximum Humidity 93    
Minimum Humidity 40    
Precipitation  
Precipitation 0.01 in 0.02 in 1.61 in (1947)
Month to date precipitation 0.53 0.36  
Year to date precipitation 9.41 11.27  
Sea Level Pressure  
Sea Level Pressure 29.86 in    
Wind  
Wind Speed 8 mph (West)    
Max Wind Speed 22 mph    
Max Gust Speed 29 mph    
Visibility 10 miles    
Events      
T = Trace of Precipitation, MM = Missing Value Source: NWS Daily Summary

Daily Weather History Graph

Daily Weather History Graph

Search for Another Location

Airport or City:

Trip Planner

Search our weather history database for the weather conditions in past years. The results will help you decide how hot, cold, wet, or windy it might be!

Date:

Astronomy

Sep. 16, 2013 Rise Set
Actual Time 6:27 AM PDT 6:57 PM PDT
Civil Twilight 5:57 AM PDT 7:27 PM PDT
Nautical Twilight 5:21 AM PDT 8:03 PM PDT
Astronomical Twilight 4:44 AM PDT 8:41 PM PDT
Moon 5:16 PM PDT (9/16) 3:10 AM PDT (9/16)
Length of Visible Light 13h 30m
Length of Day
12h 29m
Waxing Gibbous, 91% of the Moon is Illuminated
Sep 16
Waxing Gibbous
Sep 19
Full
Sep 26
Last Quarter
Oct 4
New
Oct 11
First Quarter

Hourly Weather History & Observations

Time (PDT) Temp. Dew Point Humidity Pressure Visibility Wind Dir Wind Speed Gust Speed Precip Events Conditions
12:53 AM 63.0 °F 57.9 °F 84% 29.79 in 9.0 mi Calm Calm - N/A   Partly Cloudy
1:53 AM 60.1 °F 57.0 °F 90% 29.80 in 9.0 mi Calm Calm - 0.01 in   Partly Cloudy
2:53 AM 60.1 °F 55.9 °F 86% 29.78 in 10.0 mi NW 3.5 mph - N/A   Clear
3:53 AM 57.9 °F 55.0 °F 90% 29.81 in 9.0 mi WNW 5.8 mph - N/A   Clear
4:53 AM 57.0 °F 53.1 °F 87% 29.81 in 10.0 mi West 5.8 mph - N/A   Overcast
5:53 AM 57.0 °F 52.0 °F 83% 29.82 in 10.0 mi Calm Calm - N/A   Mostly Cloudy
6:53 AM 57.0 °F 51.1 °F 81% 29.85 in 10.0 mi Calm Calm - N/A   Mostly Cloudy
7:53 AM 57.9 °F 52.0 °F 81% 29.87 in 10.0 mi Calm Calm - N/A   Partly Cloudy
8:53 AM 62.1 °F 52.0 °F 70% 29.89 in 10.0 mi West 11.5 mph - N/A   Clear
9:53 AM 62.1 °F 48.9 °F 62% 29.91 in 10.0 mi West 16.1 mph 25.3 mph N/A   Overcast
10:53 AM 66.9 °F 48.0 °F 51% 29.91 in 10.0 mi WSW 17.3 mph 25.3 mph N/A   Clear
11:53 AM 66.9 °F 48.9 °F 52% 29.91 in 10.0 mi West 18.4 mph 25.3 mph N/A   Clear
12:53 PM 69.1 °F 46.9 °F 45% 29.91 in 10.0 mi WSW 16.1 mph 24.2 mph N/A   Overcast
1:53 PM 72.0 °F 48.0 °F 43% 29.89 in 10.0 mi West 13.8 mph 25.3 mph N/A   Clear
2:53 PM 70.0 °F 46.9 °F 44% 29.88 in 10.0 mi West 16.1 mph - N/A   Partly Cloudy
3:53 PM 71.1 °F 46.9 °F 42% 29.87 in 10.0 mi West 16.1 mph 24.2 mph N/A   Clear
4:53 PM 70.0 °F 45.0 °F 41% 29.87 in 10.0 mi West 13.8 mph - N/A   Clear
5:53 PM 68.0 °F 46.9 °F 47% 29.86 in 10.0 mi West 6.9 mph - N/A   Overcast
6:53 PM 66.0 °F 46.9 °F 50% 29.86 in 10.0 mi West 10.4 mph - N/A   Mostly Cloudy
7:53 PM 63.0 °F 46.9 °F 56% 29.87 in 10.0 mi West 5.8 mph - N/A   Clear
8:53 PM 60.1 °F 46.0 °F 60% 29.88 in 10.0 mi West 4.6 mph - N/A   Clear
9:53 PM 57.0 °F 46.0 °F 67% 29.88 in 10.0 mi SW 4.6 mph - N/A   Clear
10:53 PM 55.0 °F 46.0 °F 72% 29.88 in 10.0 mi Calm Calm - N/A   Clear
11:53 PM 52.0 °F 45.0 °F 77% 29.88 in 10.0 mi Calm Calm - N/A   Clear